Back to catalog

CZ-6A DEB

AlivePO
NORAD 61843·DEBRIS·🇨🇳 China

Launched Aug 6, 2024 from Taiyuan Satellite Launch Center

Loading…

Next Passes (next 24 hours)

TLE

FreshSource: Space-Track

Epoch: Sep 14, 2026, 03:11 UTC

1 61843U 24140ADK 26257.13268067  .00003659  00000-0  98651-3 0  9993
2 61843  88.3462 200.3852 0099154  71.9760 289.2218 14.44801887108481

Track CZ-6A DEB in real time with AllMySat

Download on the App Store